DW8248 Weather Reports


Display with metric or nautical units.
time (UTC)temp
F
wind
direction
speed
MPH
gust
MPH
rain 1hr
in
rain 24hr
in
rain mn
in
humidity
%
barometer
mb
20170822111413 82 95 3.0 9.0 0.00 0.02 0.00 84 1016.3
20170822110336 82 53 3.0 12.0 0.00 0.02 0.00 84 1016.3
20170822105340 82 16 4.0 12.0 0.00 0.02 0.00 84 1016.2
20170822104324 82 86 4.0 11.0 0.00 0.02 0.00 83 1016.1
20170822103316 82 98 3.0 11.0 0.00 0.02 0.00 83 1016.1
20170822102309 82 103 3.0 9.0 0.00 0.02 0.00 83 1016.1
20170822101242 82 63 2.0 9.0 0.00 0.02 0.00 83 1016.0
20170822100229 82 80 4.0 10.0 0.00 0.02 0.00 83 1016.0
20170822095233 82 92 2.0 10.0 0.00 0.02 0.00 84 1016.0
20170822094208 82 100 3.0 11.0 0.00 0.02 0.00 83 1016.0
20170822093154 82 38 4.0 11.0 0.00 0.02 0.00 84 1015.9
20170822092202 82 84 4.0 9.0 0.00 0.02 0.00 83 1015.7
20170822091133 82 14 3.0 9.0 0.00 0.02 0.00 82 1015.7
20170822090147 82 97 4.0 10.0 0.00 0.02 0.00 82 1015.7
20170822085118 82 55 4.0 10.0 0.00 0.02 0.00 82 1015.7
20170822084128 82 76 3.0 9.0 0.00 0.02 0.00 82 1015.9
20170822082017 82 94 3.0 9.0 0.00 0.02 0.00 82 1016.2
20170822081018 82 99 4.0 9.0 0.00 0.02 0.00 82 1016.4
20170822075951 82 65 3.0 8.0 0.00 0.02 0.00 83 1016.6
20170822074948 82 70 3.0 7.0 0.00 0.02 0.00 83 1016.6
20170822074009 82 93 3.0 7.0 0.00 0.02 0.00 83 1016.6
20170822072953 82 65 3.0 8.0 0.00 0.02 0.00 82 1016.7
20170822071946 82 106 3.0 9.0 0.00 0.02 0.00 82 1016.9
20170822065831 82 68 3.0 7.0 0.00 0.02 0.00 82 1016.8
20170822064803 82 74 2.0 6.0 0.00 0.02 0.00 82 1017.0
20170822061638 83 80 2.0 8.0 0.00 0.02 0.00 82 1017.6
20170822060609 83 88 3.0 8.0 0.00 0.02 0.00 81 1017.7
20170822055544 83 65 4.0 8.0 0.00 0.02 0.00 82 1017.8
20170822054542 83 67 3.0 9.0 0.00 0.02 0.00 81 1017.9
20170822053529 83 81 3.0 9.0 0.00 0.02 0.00 81 1018.0
20170822052517 83 72 3.0 10.0 0.00 0.02 0.00 82 1018.0
20170822051535 83 122 4.0 11.0 0.00 0.02 0.00 83 1018.0
20170822050548 83 129 4.0 11.0 0.00 0.02 0.00 83 1018.0
20170822045536 83 126 5.0 10.0 0.00 0.02 0.00 83 1018.1
20170822044539 83 81 3.0 8.0 0.00 0.02 0.00 83 1018.2
20170822043515 83 114 3.0 9.0 0.00 0.02 0.00 82 1018.4
20170822042458 83 76 3.0 9.0 0.00 0.02 0.00 82 1018.5
20170822041449 83 55 4.0 9.0 0.00 0.02 0.00 82 1018.5
20170822040449 83 78 3.0 8.0 0.00 0.02 0.00 83 1018.6
20170822035459 83 88 4.0 8.0 0.00 0.02 0.02 82 1018.7
20170822034515 83 101 3.0 8.0 0.00 0.02 0.02 83 1018.7
20170822033511 83 89 4.0 11.0 0.00 0.02 0.02 83 1018.9
20170822032450 83 62 3.0 11.0 0.00 0.02 0.02 83 1018.9
20170822031425 83 126 2.0 7.0 0.00 0.02 0.02 83 1019.0
20170822030433 83 125 2.0 7.0 0.00 0.02 0.02 82 1019.1
20170822025431 83 82 2.0 7.0 0.00 0.02 0.02 83 1019.1
20170822024419 83 101 2.0 7.0 0.00 0.02 0.02 82 1019.0
20170822023440 83 92 2.0 8.0 0.00 0.02 0.02 82 1019.0
20170822022414 83 91 2.0 8.0 0.00 0.02 0.02 82 1018.9
20170822021435 83 46 3.0 7.0 0.00 0.02 0.02 81 1018.7
20170822020409 83 92 3.0 7.0 0.00 0.02 0.02 81 1018.8
20170822015342 83 77 3.0 7.0 0.00 0.02 0.02 82 1018.6
20170822014322 83 88 2.0 7.0 0.00 0.02 0.02 84 1018.6
20170822013300 83 102 2.0 7.0 0.00 0.02 0.02 84 1018.6
20170822012238 83 94 2.0 7.0 0.00 0.02 0.02 85 1018.5
20170822011220 83 85 1.0 4.0 0.00 0.02 0.02 85 1018.3
20170822010144 83 76 1.0 5.0 0.00 0.02 0.02 85 1018.1
20170822005141 83 55 1.0 5.0 0.00 0.02 0.02 84 1018.2
20170822004156 83 78 1.0 6.0 0.00 0.02 0.02 84 1018.1
20170822003130 83 83 2.0 6.0 0.00 0.02 0.02 84 1018.0
20170822002123 84 99 1.0 7.0 0.00 0.02 0.02 84 1017.9
20170822001119 84 100 2.0 7.0 0.00 0.02 0.02 84 1017.9
20170822000101 84 96 2.0 7.0 0.00 0.02 0.02 83 1017.9
20170821235112 84 75 2.0 7.0 0.00 0.02 0.02 82 1017.7
20170821234040 84 87 3.0 7.0 0.00 0.02 0.02 81 1017.7
20170821233023 85 94 3.0 7.0 0.00 0.02 0.02 80 1017.8
20170821232045 85 90 2.0 7.0 0.00 0.02 0.02 80 1017.8
20170821231038 85 80 3.0 8.0 0.00 0.02 0.02 79 1017.3
20170821230100 85 69 3.0 8.0 0.00 0.02 0.02 78 1017.3
20170821225030 86 86 3.0 7.0 0.00 0.02 0.02 78 1017.2
20170821224016 86 69 4.0 8.0 0.00 0.02 0.02 78 1017.1
20170821222947 86 116 3.0 8.0 0.00 0.02 0.02 78 1017.4
20170821221953 86 111 4.0 8.0 0.00 0.02 0.02 78 1017.5
20170821220944 86 67 3.0 8.0 0.00 0.02 0.02 78 1017.5
20170821215912 86 124 4.0 11.0 0.00 0.02 0.02 77 1017.5
20170821214905 86 110 5.0 11.0 0.00 0.02 0.02 76 1017.7
20170821213926 87 94 4.0 10.0 0.00 0.02 0.02 77 1017.6
20170821212912 86 89 4.0 10.0 0.00 0.02 0.02 76 1017.7
20170821211857 87 102 4.0 10.0 0.00 0.02 0.02 76 1017.8
20170821210837 86 130 5.0 10.0 0.00 0.02 0.02 77 1017.9
20170821205821 86 109 5.0 10.0 0.00 0.02 0.02 78 1018.0
20170821204749 87 115 4.0 9.0 0.00 0.02 0.02 76 1017.8
20170821203723 86 75 6.0 10.0 0.00 0.02 0.02 77 1017.6
20170821202724 86 117 7.0 11.0 0.00 0.02 0.02 76 1017.6
20170821201727 86 94 6.0 12.0 0.00 0.02 0.02 78 1017.6
20170821200724 86 99 7.0 12.0 0.00 0.02 0.02 77 1017.6
20170821195710 85 129 5.0 10.0 0.00 0.02 0.02 77 1017.4
20170821194714 85 113 5.0 10.0 0.00 0.02 0.02 76 1017.3
20170821193641 85 100 3.0 8.0 0.00 0.02 0.02 77 1017.3
20170821192657 85 98 4.0 8.0 0.00 0.02 0.02 78 1017.3
20170821191718 85 115 4.0 8.0 0.00 0.02 0.02 79 1017.3
20170821190721 85 115 3.0 7.0 0.00 0.02 0.02 78 1017.4
20170821185702 85 82 3.0 8.0 0.00 0.02 0.02 79 1017.6
20170821184713 85 113 4.0 10.0 0.00 0.02 0.02 79 1017.8
20170821183711 85 120 4.0 10.0 0.00 0.02 0.02 78 1018.0
20170821182657 86 90 4.0 10.0 0.00 0.02 0.02 76 1018.0
20170821181652 86 126 4.0 10.0 0.00 0.02 0.02 75 1018.1
20170821180702 86 111 5.0 10.0 0.00 0.02 0.02 73 1018.2
20170821175627 86 101 6.0 10.0 0.00 0.02 0.02 74 1018.2
20170821174608 86 134 6.0 11.0 0.00 0.02 0.02 74 1018.2
20170821173548 86 126 6.0 11.0 0.00 0.02 0.02 75 1018.4
20170821172540 87 132 5.0 10.0 0.00 0.03 0.02 74 1018.5
20170821171556 87 122 5.0 12.0 0.00 0.03 0.02 74 1018.7
20170821170605 87 90 5.0 12.0 0.00 0.04 0.02 75 1018.7
20170821165618 87 119 5.0 10.0 0.00 0.04 0.02 75 1018.8
20170821164630 87 149 5.0 12.0 0.00 0.04 0.02 75 1018.9
20170821163608 87 90 6.0 12.0 0.00 0.04 0.02 77 1018.9
20170821162600 87 91 7.0 12.0 0.00 0.04 0.02 76 1019.1
20170821161540 86 126 7.0 12.0 0.00 0.04 0.02 75 1019.1
20170821160507 86 122 8.0 13.0 0.00 0.04 0.02 75 1019.3
20170821155439 86 110 8.0 13.0 0.00 0.04 0.02 75 1019.3
20170821154450 86 121 8.0 13.0 0.00 0.04 0.02 75 1019.4
20170821153439 86 144 6.0 12.0 0.00 0.04 0.02 75 1019.4
20170821152433 86 117 7.0 12.0 0.00 0.04 0.02 77 1019.4
20170821151443 86 135 6.0 12.0 0.00 0.04 0.02 77 1019.5
20170821150423 86 121 6.0 13.0 0.00 0.04 0.02 77 1019.5
20170821145409 86 121 6.0 13.0 0.00 0.04 0.02 78 1019.5
20170821144411 86 115 7.0 11.0 0.00 0.04 0.02 79 1019.5
20170821143341 86 144 6.0 13.0 0.00 0.04 0.02 80 1019.2
20170821142341 86 109 6.0 13.0 0.00 0.04 0.02 80 1019.1
20170821141306 86 96 7.0 13.0 0.00 0.04 0.02 79 1019.0
20170821140253 86 95 5.0 10.0 0.00 0.04 0.02 80 1018.7
20170821135315 86 134 5.0 11.0 0.00 0.04 0.02 81 1018.7
20170821134303 86 119 5.0 11.0 0.00 0.04 0.02 80 1018.8
20170821133300 86 97 3.0 9.0 0.00 0.04 0.02 81 1018.6
20170821132236 86 92 4.0 9.0 0.00 0.04 0.02 82 1018.4
20170821131208 86 92 3.0 10.0 0.00 0.04 0.02 83 1018.3
20170821130157 86 115 5.0 10.0 0.00 0.04 0.02 83 1018.4
20170821125153 85 103 4.0 12.0 0.00 0.04 0.02 84 1018.4
20170821124117 84 96 4.0 12.0 0.00 0.04 0.02 85 1018.1
20170821123041 84 128 4.0 11.0 0.00 0.04 0.02 85 1018.0
20170821122029 84 71 4.0 9.0 0.00 0.04 0.02 87 1017.8
20170821121016 84 108 4.0 9.0 0.05 0.04 0.02 88 1017.8
20170821120019 84 73 3.0 10.0 0.05 0.03 0.02 88 1017.6
20170821115023 84 64 5.0 10.0 0.00 0.03 0.01 86 1017.6
20170821114045 84 89 3.0 10.0 0.00 0.02 0.00 86 1017.6
20170821113046 83 80 4.0 11.0 0.00 0.02 0.00 87 1017.4
20170821112055 83 76 4.0 11.0 0.00 0.02 0.00 87 1017.4